Location: Applecreek Village
(41.3528°N, 81.4956°W)
Time: 02:30:51
(UTC+00:00)

ARIANE 6 FM1 Upper Stage - Visible Passes

Search period start: 08 October 2024 00:00
Search period end: 18 October 2024 00:00
Orbit: 564 x 594 km, 62.0° (Epoch: 07 October)

Date Brightness Start Highest point End Pass type
(mag) Time Alt. Az. Time Alt. Az. Time Alt. Az.
14 Oct 5.2 00:53:04 10° N 00:53:55 12° N 00:53:55 12° N visible
15 Oct 5.0 00:56:49 10° N 00:58:05 15° N 00:58:05 15° N visible
16 Oct 4.8 01:00:43 10° NNW 01:02:18 18° N 01:02:18 18° N visible
17 Oct 4.7 01:04:42 10° NNW 01:06:32 22° N 01:06:32 22° N visible
17 Oct 4.9 23:31:13 10° N 23:32:55 12° NNE 23:34:32 10° NE visible
